Wind_Speed
12 8 7 4 3 0 2 5 2 4 3 3 2 4 8 1 5 2 10 21 20 17 12 10 8 8 11 14 17 17 17 20 24 25 24 25 25 25 25 25 24 24 23 22 22 22 20 17 18
14 11 7 3 3 4 4 3 7 6 3 11 8 5 4 4 6 4 22 22 20 16 13 10 8 8 13 16 18 18 19 22 24 25 25 26 26 26 26 26 25 24 23 23 22 21 19 17 20
15 14 5 3 3 11 4 7 9 4 13 3 1 4 3 3 6 9 15 22 20 17 14 11 10 9 14 17 19 20 21 23 25 26 26 26 26 26 26 27 25 24 22 23 22 20 19 20 20
15 7 3 4 10 6 5 2 4 4 3 2 6 9 6 8 2 9 16 22 18 17 14 12 10 11 14 18 21 22 23 23 26 27 28 28 27 26 25 24 24 22 18 17 18 19 20 22 21
17 5 3 4 7 5 5 6 6 6 6 6 6 5 6 15 13 11 21 22 20 17 15 12 11 12 14 19 21 23 24 25 26 28 28 29 29 27 26 23 21 19 18 19 18 20 20 22 22
5 4 3 11 8 6 5 11 8 6 5 5 2 4 7 13 16 14 24 23 20 17 16 14 13 12 14 18 22 24 25 25 26 26 26 26 25 27 26 24 20 18 18 20 21 21 20 23 23
6 4 8 6 4 7 10 10 11 14 10 5 1 3 5 6 12 15 21 23 22 20 17 16 14 14 15 17 21 25 25 26 25 25 28 29 27 26 26 22 17 19 21 22 21 22 21 24 23
6 3 5 5 8 11 6 7 8 13 9 3 2 2 3 12 10 16 22 25 24 22 20 18 16 15 16 19 20 24 27 27 27 28 31 33 32 31 28 23 24 22 22 21 21 23 23 25 23
7 5 7 9 8 8 2 4 7 6 6 5 6 12 13 6 14 15 23 27 27 26 24 20 18 17 17 20 23 23 24 25 27 32 33 32 34 33 30 23 23 25 24 23 22 24 24 26 24
6 7 10 7 11 9 8 11 10 5 8 12 18 25 12 10 17 13 28 31 30 30 27 23 19 18 19 19 23 23 24 26 27 30 31 33 35 34 27 21 29 29 25 27 25 27 27 26 26
6 11 6 5 17 7 13 14 16 14 14 21 21 21 14 25 19 17 23 34 34 31 28 25 21 20 21 21 23 25 27 29 30 31 34 33 34 32 20 20 33 27 29 26 27 28 30 30 28
5 8 13 10 14 10 12 23 18 20 19 26 27 29 26 25 24 21 20 29 37 33 30 25 22 22 22 23 26 27 29 32 33 30 32 35 39 30 22 25 28 33 33 30 30 32 32 30 27
7 6 10 11 17 16 18 20 20 13 20 27 30 31 29 24 24 25 23 24 34 37 33 30 25 23 23 24 26 26 30 34 36 32 32 40 43 37 31 29 30 34 33 31 35 35 32 29 24
5 5 7 9 16 16 19 26 20 24 23 22 27 29 29 25 23 26 24 24 28 37 37 33 29 25 23 25 26 26 29 32 36 38 33 40 41 35 30 31 33 36 34 33 36 36 34 29 23
4 7 7 8 13 10 7 20 16 31 25 22 26 27 28 26 26 25 23 24 29 33 38 37 32 27 24 26 27 27 29 33 34 36 34 39 39 34 34 35 37 39 36 33 39 36 33 30 27
3 4 5 2 3 6 8 15 12 11 12 16 18 24 31 29 27 21 20 22 27 32 39 37 33 30 25 27 26 25 29 33 33 34 35 35 39 38 36 40 43 42 38 37 40 38 36 32 29
1 8 6 6 2 3 8 11 3 21 20 20 21 19 22 23 22 20 20 19 24 30 34 37 35 32 27 26 24 24 27 32 31 32 30 32 37 34 37 39 41 47 42 41 43 40 35 31 30
6 6 5 7 2 12 18 26 17 18 24 24 22 26 24 26 28 27 24 23 26 29 30 33 35 33 28 26 23 22 22 23 27 28 29 30 33 33 34 35 39 45 41 42 43 41 36 32 32
3 4 8 6 8 12 18 25 16 18 22 24 26 28 27 28 28 29 26 24 25 27 28 33 36 34 28 26 22 23 24 25 26 27 30 29 33 36 36 36 33 35 39 41 45 42 37 35 33
13 14 14 8 9 7 14 29 22 22 24 30 30 33 31 32 32 30 28 27 25 27 29 35 37 32 28 24 21 24 24 25 26 26 31 33 33 39 39 41 43 41 43 41 47 44 39 35 35
11 13 8 9 8 11 14 18 7 6 14 25 31 36 34 33 32 32 30 28 27 28 31 36 38 30 26 22 21 25 26 25 26 28 30 38 34 37 46 43 44 42 42 41 47 47 43 41 36
13 9 9 6 4 4 6 10 8 2 8 12 18 22 26 31 34 31 31 32 29 29 32 36 34 28 25 20 22 25 23 25 25 31 23 36 37 39 46 44 46 44 42 42 46 47 44 42 39
4 4 4 4 5 4 4 5 4 12 8 10 15 18 24 28 32 31 31 27 26 29 33 35 32 28 23 19 18 17 19 19 22 19 25 30 29 29 47 43 35 38 40 40 43 48 46 44 41
5 2 3 3 4 5 9 9 3 5 9 22 18 22 18 20 23 23 22 18 22 28 32 34 30 26 22 17 19 18 14 14 13 18 24 37 27 30 34 33 30 34 36 35 38 45 47 44 39
4 3 2 2 4 5 4 9 12 15 8 12 15 21 21 20 14 13 16 22 26 29 32 34 31 27 20 19 20 18 15 14 12 16 26 27 29 32 33 28 29 29 30 32 34 39 42 44 40
9 5 3 3 3 2 3 7 2 3 5 9 16 19 21 20 16 12 15 20 23 26 32 36 33 26 20 20 20 19 16 14 13 12 21 25 32 35 34 30 27 30 34 36 35 28 35 40 34
5 4 0 2 4 4 4 5 5 6 9 12 15 23 30 29 21 14 20 21 23 26 31 35 32 26 20 21 21 19 17 15 14 12 12 28 24 34 40 32 34 33 33 31 44 39 34 38 40
2 4 3 2 2 3 4 6 6 7 13 16 19 21 27 33 29 13 17 22 23 23 28 32 29 24 21 22 21 19 17 15 14 13 13 18 26 29 37 34 37 37 34 30 38 45 41 41 45
4 2 2 1 2 2 2 2 2 8 13 13 16 23 25 31 20 6 10 16 19 23 28 31 28 23 20 20 20 18 16 14 11 12 13 12 17 22 30 32 35 36 33 33 32 40 47 41 45
2 4 4 2 2 2 4 6 4 12 14 12 16 19 22 28 17 6 7 15 19 24 28 30 27 22 19 19 18 16 13 14 13 12 12 12 13 15 18 21 26 27 31 31 29 29 46 45 41
Wind_Direction
209 201 170 155 213 298 228 234 278 244 231 226 184 179 202 166 173 208 161 159 164 167 165 168 174 189 209 215 212 206 202 197 196 194 196 192 191 192 185 182 179 179 175 175 173 173 175 171 162
194 181 166 144 210 224 233 223 218 202 287 304 255 243 202 225 199 168 156 163 169 170 169 170 174 185 207 212 212 206 200 195 194 193 195 194 193 192 188 184 182 179 177 180 179 184 180 168 159
181 172 166 194 186 229 217 208 207 195 322 250 244 250 237 216 203 179 180 172 176 179 177 178 185 188 204 210 209 203 197 196 195 194 195 196 195 193 189 185 182 182 184 188 186 190 187 172 168
168 160 96 225 216 239 216 162 177 309 312 67 356 290 276 248 245 192 187 183 186 186 185 189 191 198 205 208 207 203 198 194 195 197 198 198 197 192 185 189 185 186 190 187 185 183 180 173 178
169 159 182 225 236 256 235 242 263 277 295 282 348 273 237 254 245 208 190 191 192 192 191 192 199 205 210 208 208 207 201 199 198 200 200 200 201 193 189 188 191 189 192 190 191 188 183 180 182
150 145 204 228 228 245 237 241 258 267 274 284 315 259 254 246 239 217 195 195 196 202 196 198 202 207 211 211 211 211 209 205 203 202 203 205 202 193 193 191 194 199 196 192 190 190 188 184 182
181 172 230 226 232 255 253 229 225 251 239 251 259 223 278 282 228 204 198 194 200 202 206 206 207 208 210 211 211 213 213 210 208 201 195 197 195 197 195 189 193 207 197 192 195 194 192 186 183
201 195 195 213 214 246 236 198 238 195 240 199 236 250 310 314 353 214 200 199 204 207 208 213 212 211 210 209 213 214 213 213 210 205 203 198 195 196 189 202 216 203 199 198 201 200 196 185 183
177 223 231 216 191 232 251 212 226 224 248 268 274 261 296 327 338 236 206 204 208 210 213 215 215 215 215 208 210 214 216 218 216 210 208 208 201 198 202 195 185 195 200 201 193 195 196 182 180
198 225 223 209 229 241 251 235 238 235 255 275 281 278 275 292 316 264 223 216 216 216 217 218 218 217 214 213 213 219 216 218 220 217 210 206 204 212 203 221 220 205 209 206 196 194 191 179 179
198 238 209 226 240 252 263 256 258 258 252 259 269 282 289 298 297 283 244 231 229 224 221 220 220 218 214 212 218 219 219 218 222 224 220 219 212 201 217 232 210 201 198 190 190 189 184 183 185
232 222 234 242 241 242 247 268 261 247 250 265 274 284 283 287 287 276 259 242 234 230 228 223 220 221 215 213 219 224 226 226 222 220 223 212 205 206 227 211 202 196 195 188 191 186 186 186 188
231 239 235 247 257 251 258 260 262 256 258 271 276 277 278 283 281 276 269 255 246 236 231 225 222 222 218 219 220 225 225 225 221 226 220 214 211 225 227 209 207 202 195 187 194 191 188 186 190
181 208 258 251 259 258 259 265 265 272 269 261 268 270 275 276 274 275 272 261 251 239 235 227 226 224 222 225 227 230 228 228 225 221 230 216 220 227 223 211 207 204 199 191 198 193 192 190 191
253 284 280 240 239 245 251 265 247 259 273 263 263 267 269 264 265 268 268 271 260 248 240 229 226 226 225 228 233 234 232 231 229 225 233 225 221 225 227 214 205 205 199 194 197 195 194 192 188
262 234 271 230 172 248 196 253 289 261 270 269 267 265 270 268 261 263 265 268 265 254 243 230 227 228 228 231 236 236 229 231 231 230 227 222 224 225 222 213 207 204 198 195 199 200 194 191 186
265 258 225 292 229 301 226 271 333 321 309 300 296 291 283 276 269 263 264 272 264 258 246 231 227 228 230 233 240 236 234 232 230 231 228 222 221 218 217 210 212 208 197 198 200 198 195 191 190
219 237 228 236 273 314 291 278 279 280 286 281 279 282 279 279 276 274 276 272 265 257 246 232 226 226 227 231 236 234 229 228 231 229 225 219 218 211 212 215 214 201 193 199 199 200 194 195 191
219 247 265 277 275 288 278 282 287 281 278 277 269 264 268 272 274 270 275 273 264 252 241 227 220 219 223 228 234 226 229 226 229 231 221 215 214 213 211 208 195 191 200 200 199 198 196 190 190
237 258 265 277 257 282 292 287 288 271 263 260 258 256 256 262 269 267 272 269 266 249 234 221 214 217 222 228 237 222 229 229 232 233 228 214 217 216 210 206 193 197 202 202 198 198 191 194 195
225 237 246 263 292 278 291 284 274 274 252 254 254 254 255 252 256 264 267 269 262 240 225 215 212 213 221 230 234 221 224 232 234 239 227 223 219 216 210 209 203 205 205 202 200 200 200 196 193
245 214 232 239 291 271 13 296 280 283 287 266 265 258 250 250 249 253 262 263 247 227 217 210 208 209 220 229 222 218 219 227 232 240 228 236 225 218 212 211 211 212 207 204 203 203 205 206 198
225 145 184 211 248 282 240 242 324 281 300 332 328 297 258 250 248 250 260 252 230 218 210 204 203 208 218 230 208 212 215 226 230 244 225 229 211 216 210 213 207 204 205 206 207 205 206 210 207
146 199 264 219 224 254 228 216 284 307 358 330 337 334 326 297 264 258 245 222 213 212 205 201 200 209 217 215 199 206 211 217 216 208 197 197 193 197 199 201 200 201 205 209 209 209 210 213 212
161 163 188 197 201 244 187 213 264 313 353 344 341 340 339 329 302 244 212 207 198 207 203 198 199 206 212 198 198 198 203 205 211 219 210 216 198 184 190 189 191 196 202 206 210 213 215 214 215
173 200 223 242 215 196 232 233 233 28 358 12 9 355 343 338 323 281 228 204 199 206 202 195 198 201 205 193 196 193 193 200 207 211 203 200 189 186 188 200 194 195 196 198 202 217 220 217 221
156 201 293 259 236 259 231 258 209 14 4 14 18 9 352 337 319 280 239 224 209 209 203 196 195 199 198 190 193 186 187 192 195 202 213 197 194 198 204 194 205 213 217 220 205 201 215 220 216
187 131 178 203 236 245 243 255 239 358 348 352 4 5 1 342 335 298 231 219 209 202 199 196 194 197 192 189 192 186 186 189 188 191 193 198 208 197 209 203 207 212 215 218 214 205 208 216 220
157 167 229 300 230 280 301 259 146 11 344 335 355 356 7 349 349 347 205 192 190 199 194 194 190 191 183 185 191 187 183 175 178 176 186 193 203 211 202 210 212 213 216 221 222 216 209 217 223
138 157 186 190 142 268 276 265 92 8 8 1 355 0 5 3 345 15 151 168 178 182 186 190 186 186 181 187 187 185 190 180 180 172 168 178 191 201 212 214 214 221 222 221 226 220 218 222 227
Height
1503 1505 1506 1508 1512 1512 1511 1504 1503 1498 1497 1495 1494 1493 1491 1491 1492 1497 1487 1489 1493 1496 1498 1500 1500 1501 1502 1503 1505 1509 1511 1513 1516 1518 1520 1522 1524 1526 1529 1532 1534 1537 1539 1542 1544 1546 1547 1549 1551
1501 1503 1506 1506 1508 1507 1500 1501 1498 1492 1492 1491 1492 1491 1491 1487 1488 1488 1489 1490 1493 1494 1496 1498 1499 1500 1501 1503 1504 1507 1510 1513 1516 1519 1521 1523 1526 1527 1529 1533 1535 1538 1541 1543 1545 1546 1548 1550 1552
1499 1502 1505 1503 1507 1498 1495 1494 1490 1491 1490 1489 1490 1489 1487 1485 1485 1486 1487 1489 1491 1493 1494 1496 1497 1498 1500 1501 1503 1506 1509 1513 1515 1518 1520 1522 1525 1528 1531 1533 1536 1539 1542 1544 1546 1548 1550 1552 1554
1497 1502 1504 1502 1499 1493 1490 1489 1490 1491 1490 1489 1490 1488 1486 1483 1484 1485 1487 1488 1490 1491 1492 1493 1495 1497 1498 1500 1502 1505 1508 1511 1514 1516 1519 1522 1524 1527 1531 1535 1536 1541 1542 1544 1547 1549 1551 1553 1554
1495 1497 1500 1501 1497 1491 1491 1489 1490 1489 1490 1487 1488 1485 1484 1481 1483 1484 1485 1487 1489 1490 1492 1493 1494 1495 1497 1498 1500 1503 1507 1509 1512 1515 1517 1521 1524 1527 1529 1533 1538 1540 1543 1545 1547 1549 1552 1553 1556
1493 1495 1498 1493 1495 1487 1487 1486 1486 1485 1486 1485 1486 1486 1482 1479 1480 1481 1483 1486 1488 1490 1491 1491 1492 1493 1495 1497 1499 1500 1504 1507 1510 1513 1517 1520 1525 1527 1528 1530 1539 1540 1542 1544 1545 1549 1551 1554 1557
1489 1491 1486 1491 1492 1488 1480 1482 1484 1483 1483 1483 1482 1482 1479 1479 1478 1479 1482 1484 1486 1487 1489 1489 1491 1492 1493 1494 1497 1498 1501 1504 1507 1512 1515 1518 1521 1525 1526 1530 1532 1542 1541 1542 1545 1548 1551 1554 1558
1487 1488 1491 1490 1488 1482 1477 1478 1478 1479 1479 1480 1479 1478 1478 1478 1477 1478 1479 1481 1482 1484 1486 1488 1488 1490 1491 1493 1494 1496 1499 1502 1506 1510 1512 1514 1517 1520 1523 1526 1529 1539 1540 1541 1544 1549 1552 1554 1558
1484 1486 1483 1483 1486 1476 1475 1476 1477 1477 1477 1477 1477 1476 1476 1476 1475 1475 1476 1477 1478 1479 1481 1483 1485 1487 1489 1491 1493 1495 1497 1500 1503 1506 1509 1513 1515 1518 1520 1523 1529 1536 1536 1538 1541 1548 1552 1554 1558
1482 1480 1477 1478 1475 1472 1473 1474 1475 1476 1475 1475 1474 1472 1474 1474 1473 1472 1472 1473 1474 1474 1476 1479 1481 1483 1486 1488 1491 1493 1495 1497 1500 1503 1506 1510 1514 1517 1520 1522 1525 1532 1532 1534 1539 1546 1551 1556 1558
1476 1470 1474 1472 1471 1472 1471 1471 1472 1471 1471 1470 1468 1468 1470 1470 1469 1469 1468 1469 1470 1472 1474 1475 1477 1479 1481 1484 1487 1490 1491 1493 1497 1499 1502 1507 1511 1514 1517 1518 1522 1527 1530 1533 1539 1546 1550 1554 1557
1474 1470 1471 1468 1468 1469 1468 1465 1464 1464 1465 1463 1464 1464 1465 1465 1464 1464 1463 1463 1465 1468 1471 1472 1474 1475 1477 1481 1483 1485 1487 1489 1491 1495 1498 1501 1505 1508 1512 1515 1520 1523 1528 1531 1537 1543 1547 1552 1556
1469 1468 1466 1465 1465 1464 1463 1460 1458 1455 1458 1457 1458 1458 1458 1459 1457 1456 1456 1458 1459 1462 1465 1468 1470 1471 1474 1477 1479 1481 1484 1485 1487 1490 1493 1497 1501 1504 1508 1513 1517 1521 1524 1529 1535 1541 1545 1551 1556
1463 1464 1463 1461 1460 1458 1457 1452 1456 1445 1449 1450 1450 1450 1451 1452 1451 1450 1450 1450 1451 1454 1458 1462 1465 1467 1470 1473 1475 1477 1479 1482 1484 1486 1488 1492 1497 1501 1504 1509 1513 1517 1521 1526 1534 1539 1544 1550 1555
1461 1462 1459 1455 1453 1452 1451 1442 1444 1440 1442 1443 1442 1442 1443 1444 1444 1443 1444 1444 1445 1446 1451 1455 1460 1463 1465 1468 1471 1473 1475 1478 1479 1480 1484 1486 1491 1496 1500 1504 1509 1513 1519 1525 1532 1538 1544 1549 1553
1460 1459 1459 1450 1449 1446 1448 1437 1438 1436 1437 1437 1438 1436 1435 1436 1436 1437 1437 1437 1438 1440 1444 1450 1454 1458 1460 1464 1466 1468 1470 1472 1474 1476 1478 1482 1486 1491 1494 1499 1504 1509 1516 1522 1530 1536 1541 1547 1551
1462 1455 1458 1452 1446 1445 1445 1435 1437 1435 1437 1435 1434 1432 1431 1430 1430 1431 1431 1432 1431 1433 1437 1443 1447 1452 1454 1458 1461 1463 1465 1467 1470 1471 1474 1478 1481 1486 1489 1494 1498 1505 1512 1520 1527 1533 1540 1545 1550
1456 1457 1457 1452 1447 1445 1441 1429 1435 1436 1433 1432 1431 1429 1426 1425 1424 1424 1425 1425 1425 1426 1430 1436 1441 1445 1448 1452 1455 1458 1460 1462 1465 1467 1470 1473 1477 1482 1486 1490 1494 1499 1508 1516 1523 1530 1537 1543 1548
1453 1455 1456 1454 1451 1448 1439 1422 1430 1430 1427 1423 1423 1422 1419 1418 1418 1417 1418 1418 1418 1419 1422 1428 1433 1437 1442 1446 1449 1453 1454 1458 1460 1462 1466 1470 1473 1477 1481 1486 1492 1498 1506 1513 1520 1527 1534 1539 1546
1451 1452 1453 1452 1446 1446 1438 1415 1419 1418 1414 1414 1412 1407 1408 1409 1409 1409 1410 1411 1411 1412 1415 1421 1427 1432 1437 1441 1444 1448 1450 1453 1455 1458 1460 1464 1468 1473 1475 1482 1488 1495 1503 1509 1516 1523 1530 1537 1542
1449 1449 1452 1452 1447 1441 1437 1412 1406 1406 1405 1401 1399 1398 1399 1398 1399 1400 1402 1403 1404 1405 1408 1414 1421 1427 1433 1437 1439 1443 1446 1449 1451 1452 1451 1455 1461 1466 1470 1477 1484 1492 1499 1505 1513 1519 1525 1530 1538
1446 1443 1445 1449 1449 1444 1437 1421 1404 1404 1398 1394 1394 1391 1390 1390 1390 1391 1393 1394 1395 1399 1404 1410 1418 1423 1429 1432 1434 1437 1441 1443 1445 1446 1446 1448 1454 1457 1463 1471 1478 1488 1495 1502 1509 1516 1522 1528 1534
1440 1441 1443 1446 1447 1445 1440 1442 1405 1399 1391 1390 1390 1385 1383 1382 1383 1382 1384 1387 1389 1393 1398 1406 1414 1420 1425 1427 1430 1434 1437 1439 1441 1442 1442 1445 1450 1454 1457 1466 1476 1485 1492 1499 1506 1512 1519 1525 1532
1438 1440 1442 1443 1443 1443 1428 1430 1404 1397 1397 1393 1389 1384 1381 1379 1379 1377 1377 1380 1385 1390 1395 1402 1410 1416 1420 1423 1427 1432 1434 1436 1438 1439 1439 1440 1446 1454 1460 1467 1475 1482 1489 1496 1503 1510 1515 1522 1529
1439 1441 1439 1443 1444 1431 1424 1430 1404 1399 1403 1400 1393 1388 1382 1378 1375 1373 1373 1376 1380 1384 1390 1398 1406 1411 1416 1421 1425 1430 1433 1435 1437 1438 1439 1441 1447 1452 1459 1465 1472 1480 1488 1495 1502 1508 1514 1519 1525
1436 1436 1430 1431 1431 1427 1422 1415 1399 1401 1401 1398 1393 1387 1384 1379 1374 1372 1373 1373 1377 1380 1387 1394 1401 1408 1413 1419 1424 1428 1431 1433 1436 1438 1439 1441 1446 1452 1460 1466 1473 1480 1486 1491 1498 1505 1511 1517 1523
1434 1436 1433 1435 1431 1428 1413 1400 1399 1397 1395 1390 1386 1381 1380 1376 1374 1370 1371 1371 1374 1377 1383 1392 1399 1405 1411 1417 1423 1426 1429 1432 1435 1437 1441 1442 1447 1454 1461 1466 1473 1478 1484 1489 1495 1499 1505 1511 1517
1427 1432 1437 1439 1434 1428 1406 1403 1395 1397 1396 1391 1385 1381 1377 1375 1366 1362 1364 1367 1372 1379 1383 1390 1398 1404 1409 1416 1421 1425 1429 1431 1434 1437 1440 1444 1448 1450 1456 1463 1469 1475 1479 1485 1491 1495 1500 1505 1512
1430 1433 1436 1434 1431 1421 1416 1399 1396 1400 1397 1393 1388 1385 1377 1376 1372 1365 1366 1368 1373 1377 1383 1389 1396 1403 1408 1415 1420 1424 1428 1431 1434 1437 1440 1444 1448 1453 1457 1462 1466 1470 1476 1481 1485 1489 1495 1500 1506
1423 1425 1427 1431 1427 1429 1424 1406 1397 1400 1397 1395 1392 1388 1383 1376 1374 1371 1369 1370 1373 1376 1381 1390 1396 1402 1407 1414 1418 1423 1427 1430 1434 1438 1441 1444 1448 1452 1456 1460 1464 1468 1472 1476 1481 1485 1491 1495 1499